Flag for Canada Weather past 2 weeks in Burnaby, British Columbia, Canada

Now
64 °F

Mostly cloudy.


Feels Like: 64 °F
Forecast: 57 / 73 °F
Wind: 5 mph from East

Location: Vancouver International Air-Port

Current Time: May 22, 2015 at 12:48:50 PM

Latest Report: May 22, 2015 at 12:00 PM


Visibility: 20 mi

Pressure: 29.95 "Hg

Humidity: 64%

Dew point: 52 °F

Location of BurnabyLocation

Historic Weather in Burnaby — Graph

°F

Burnaby temperature yesterday

Maximum temperature yesterday: 70 °F (at 2:00 PM)
Minimum temperature yesterday: 55 °F (at 5:00 AM)
Average temperature yesterday: 63 °F

Past Weeks' High & Low Weather Summary

 TemperatureHumidityPressure
High72 °F (May 9, 4:00 PM)100% (May 18, 5:00 AM)30.15 "Hg (May 18, 5:00 AM)
Low45 °F (May 8, 4:00 AM)47% (May 9, 4:00 PM)29.78 "Hg (May 21, 5:00 PM)
Average59 °F77%29.95 "Hg
* Reported May 7 11:00 AM — May 22 11:00 AM, Burnaby, Weather by CustomWeather, © 2015

Note: Actual official high and low records may vary slightly from our data, if they occured in-between our weather recording intervals... More about our weather records

Advertising

Burnaby weather history for previous 24 hours

 ConditionsComfort  
Time TempWeatherWind HumidityBarometerVisibility
11:00 AM
Fri, May 22
63 °FMostly cloudy.9 mph68%29.95 "Hg20 mi
10:00 AM61 °FBroken clouds.9 mph72%29.94 "Hg20 mi
9:00 AM61 °FPartly sunny.6 mph72%29.94 "Hg20 mi
8:00 AM59 °FBroken clouds.5 mph77%29.93 "Hg20 mi
7:00 AM59 °FBroken clouds.5 mph77%29.92 "Hg20 mi
6:00 AM55 °FPartly cloudy.5 mph88%29.90 "Hg20 mi
5:00 AM55 °FOvercast.6 mph82%29.89 "Hg20 mi
4:00 AM55 °FPartly cloudy.5 mph88%29.89 "Hg20 mi
3:00 AM57 °FMostly cloudy.9 mph82%29.88 "Hg20 mi
2:00 AM59 °FPartly cloudy.6 mph77%29.87 "Hg20 mi
1:00 AM59 °FPartly cloudy.3 mph82%29.85 "Hg20 mi
12:00 AM61 °FPartly cloudy.7 mph83%29.84 "Hg20 mi
11:00 PM
Thu, May 21
63 °FPassing clouds.6 mph77%29.84 "Hg30 mi
10:00 PM64 °FPassing clouds.6 mph73%29.83 "Hg30 mi
9:00 PM64 °FBroken clouds.13 mph73%29.81 "Hg30 mi
8:00 PM68 °FMostly cloudy.7 mph64%29.80 "Hg30 mi
7:00 PM68 °FPartly sunny.3 mph64%29.80 "Hg30 mi
6:00 PM70 °FPartly sunny.7 mph60%29.79 "Hg30 mi
5:00 PM70 °FPartly sunny.7 mph69%29.78 "Hg30 mi
4:00 PM68 °FPartly sunny.8 mph78%29.80 "Hg30 mi
3:00 PM70 °FOvercast.7 mph69%29.82 "Hg30 mi
2:00 PM70 °FPartly sunny.7 mph69%29.84 "Hg30 mi
1:00 PM68 °FScattered clouds.7 mph69%29.85 "Hg30 mi
12:00 PM66 °FPartly sunny.6 mph78%29.85 "Hg30 mi
Weather by CustomWeather, © 2015

See weather overviewHow to use our weather pages